Japanese version Home page |
Updated on August 4, 2001 |
Profile
|
Orbital ElementsT = 2000 July 15.867 TT Peri. = 298.162 e = 0.77299 Node = 41.137 2000.0 q = 2.66273 AU Incl. = 25.179 a = 11.72976 AU n = 0.024534 P = 40.17 years
|
Finding Charts
|
Magnitudes Graphm1 = 8.0 + 5 log d + 20.0 log r
|
The orbital elements are printed on
IAUC 7501.
|